Location: Brno
(49.2000°N, 16.6330°E)
Time: 11:22:36
(UTC+02:00)

CARTOSAT-1 - Visible Passes

Search period start: 30 March 2015 00:00
Search period end: 09 April 2015 00:00
Orbit: 616 x 620 km, 97.8° (Epoch: 29 March)

Date Brightness Start Highest point End Pass type
(mag) Time Alt. Az. Time Alt. Az. Time Alt. Az.
30 Mar 5.3 21:21:00 18° ENE 21:21:00 18° ENE 21:23:47 10° NNE visible
30 Mar 5.1 22:58:07 35° NW 22:58:07 35° NW 23:00:47 10° NNW visible
31 Mar 4.9 21:37:48 25° NE 21:37:48 25° NE 21:40:55 10° N visible
31 Mar 5.4 23:14:56 28° NW 23:14:56 28° NW 23:17:22 10° NNW visible
01 Apr 4.6 21:54:37 33° NE 21:54:37 33° NE 21:57:55 10° N visible
01 Apr 5.8 23:31:45 22° WNW 23:31:45 22° WNW 23:33:51 10° NW visible
02 Apr 4.3 22:11:25 43° NE 22:11:25 43° NE 22:14:49 10° N visible
02 Apr 6.1 23:48:32 16° WNW 23:48:32 16° WNW 23:50:08 10° NW visible
03 Apr 5.8 20:51:07 10° ENE 20:51:53 11° NE 20:52:58 10° NE visible
03 Apr 4.1 22:28:14 52° N 22:28:14 52° N 22:31:37 10° N visible
04 Apr 6.4 00:05:21 12° WNW 00:05:21 12° WNW 00:06:04 10° WNW visible
04 Apr 5.5 21:07:55 14° ENE 21:08:25 15° ENE 21:10:53 10° NNE visible
04 Apr 4.3 22:45:02 51° NNW 22:45:02 51° NNW 22:48:21 10° NNW visible
05 Apr 5.1 21:24:42 20° ENE 21:24:57 20° ENE 21:28:10 10° NNE visible
05 Apr 4.7 23:01:50 41° NW 23:01:50 41° NW 23:05:00 10° NNW visible
06 Apr 4.7 21:41:30 27° ENE 21:41:32 27° ENE 21:45:14 10° N visible
06 Apr 5.2 23:18:38 31° WNW 23:18:38 31° WNW 23:21:33 10° NNW visible
07 Apr 4.3 21:58:17 38° ENE 21:58:17 38° ENE 22:02:11 10° N visible
07 Apr 5.6 23:35:24 23° WNW 23:35:24 23° WNW 23:37:57 10° NW visible
08 Apr 3.8 22:15:04 54° NE 22:15:04 54° NE 22:19:01 10° N visible
08 Apr 6.0 23:52:11 17° WNW 23:52:11 17° WNW 23:54:10 10° NW visible
